Weather History for Hamilton, OH

Change the Weather History Date:

Thursday, December 20, 2012

  Actual Average (KCVG) Record (KCVG)
Temperature  
Mean Temperature 44 °F 33 °F  
Max Temperature 53 °F 40 °F 67 °F (1877)
Min Temperature 33 °F 25 °F -9 °F (1981)
Degree Days  
Heating Degree Days 22 32  
Month to date heating degree days 593  
Since 1 July heating degree days 1553  
Cooling Degree Days 0 0  
Month to date cooling degree days 0  
Year to date cooling degree days 1121  
Moisture  
Dew Point 40 °F    
Average Humidity 82    
Maximum Humidity 94    
Minimum Humidity 62    
Precipitation  
Precipitation 0.81 in 0.11 in 1.18 in (1881)
Month to date precipitation 2.16  
Year to date precipitation 41.31  
Snow  
Snow 0.00 in 0.20 in 5.70 in (1942)
Month to date snowfall 2.7  
Since 1 July snowfall 3.5  
Snow Depth -    
Sea Level Pressure  
Sea Level Pressure 29.54 in    
Wind  
Wind Speed 10 mph (South)    
Max Wind Speed 23 mph    
Max Gust Speed 45 mph    
Visibility 6 miles    
Events Rain , Snow    
T = Trace of Precipitation, MM = Missing Value Source: NWS Daily Summary

Daily Weather History Graph

Daily Weather History Graph

Search for Another Location

Airport:

Trip Planner

Search our weather history database for the weather conditions in past years. The results will help you decide how hot, cold, wet, or windy it might be!

Date:

Astronomy

Dec. 20, 2012 Rise Set
Actual Time 7:54 AM EST 5:17 PM EST
Civil Twilight 7:23 AM EST 5:48 PM EST
Nautical Twilight 6:50 AM EST 6:21 PM EST
Astronomical Twilight 6:17 AM EST 6:54 PM EST
Moon 12:33 PM EST (12/20) 12:42 AM EST (12/20)
Length of Visible Light 10h 24m
Length of Day
9h 23m
First Quarter, 55% of the Moon is Illuminated
Dec 20
First Quarter
Dec 28
Full
Jan 4
Last Quarter
Jan 11
New
Jan 18
First Quarter

Hourly Weather History & Observations

Time (EST) Temp. Windchill Dew Point Humidity Pressure Visibility Wind Dir Wind Speed Gust Speed Precip Events Conditions
12:53 AM 44.1 °F 40.1 °F 36.0 °F 73% 29.95 in 10.0 mi East 6.9 mph - N/A   Mostly Cloudy
1:53 AM 41.0 °F 37.1 °F 37.0 °F 86% 29.92 in 9.0 mi East 5.8 mph - N/A   Mostly Cloudy
2:53 AM 44.1 °F 40.8 °F 36.0 °F 73% 29.87 in 10.0 mi ESE 5.8 mph - N/A   Partly Cloudy
3:53 AM 45.0 °F 41.2 °F 36.0 °F 71% 29.82 in 10.0 mi ESE 6.9 mph - N/A   Clear
4:53 AM 45.0 °F 40.6 °F 37.9 °F 76% 29.75 in 10.0 mi East 8.1 mph - N/A   Partly Cloudy
5:53 AM 44.1 °F 40.8 °F 37.9 °F 79% 29.69 in 10.0 mi East 5.8 mph - N/A   Scattered Clouds
7:53 AM 51.1 °F - 43.0 °F 74% 29.62 in 6.0 mi SSE 16.1 mph 29.9 mph 0.05 in Rain Rain
8:53 AM 48.9 °F - 45.0 °F 86% 29.58 in 7.0 mi South 9.2 mph 23.0 mph 0.11 in Rain Light Rain
9:07 AM 48.2 °F - 44.6 °F 87% 29.56 in 2.0 mi SSE 11.5 mph 25.3 mph 0.07 in Rain Heavy Rain
9:31 AM 48.2 °F - 46.4 °F 93% 29.56 in 1.5 mi SSE 9.2 mph 23.0 mph 0.19 in Rain Heavy Rain
9:41 AM 48.2 °F - 46.4 °F 93% 29.55 in 2.0 mi SSE 11.5 mph 27.6 mph 0.23 in Rain Rain
9:45 AM 48.2 °F - 46.4 °F 93% 29.55 in 3.0 mi South 16.1 mph 27.6 mph 0.23 in Rain Rain
9:53 AM 48.9 °F - 46.9 °F 93% 29.55 in 4.0 mi SSE 9.2 mph 26.5 mph 0.24 in Rain Rain
10:27 AM 50.0 °F - 46.4 °F 87% 29.58 in 1.8 mi SSW 6.9 mph 20.7 mph 0.07 in Rain Heavy Rain
10:34 AM 48.2 °F - 46.4 °F 93% 29.57 in 1.2 mi Variable 5.8 mph - 0.10 in Rain Heavy Rain
10:41 AM 50.0 °F - 46.4 °F 87% 29.57 in 2.0 mi South 4.6 mph - 0.12 in Rain Rain
10:53 AM 50.0 °F - 46.9 °F 89% 29.57 in 2.5 mi South 8.1 mph - 0.16 in Rain Rain
11:21 AM 50.0 °F - 48.2 °F 94% 29.55 in 3.0 mi South 8.1 mph - 0.07 in Rain Light Rain
11:33 AM 50.0 °F - 48.2 °F 94% 29.53 in 2.5 mi SSE 11.5 mph 16.1 mph 0.10 in Rain Rain
11:42 AM 50.0 °F - 48.2 °F 94% 29.52 in 3.0 mi SSE 5.8 mph 16.1 mph 0.11 in Rain Rain
11:53 AM 50.0 °F - 48.0 °F 93% 29.51 in 4.0 mi Variable 6.9 mph - 0.13 in Rain Light Rain
12:05 PM 50.0 °F - 48.2 °F 94% 29.48 in 5.0 mi SSE 8.1 mph - 0.01 in Rain Light Rain
12:34 PM 50.0 °F - 48.2 °F 94% 29.45 in 4.0 mi SSE 9.2 mph - 0.05 in Rain Light Rain
12:53 PM 50.0 °F - 48.0 °F 93% 29.42 in 5.0 mi SSE 12.7 mph 23.0 mph 0.07 in Rain Light Rain
1:53 PM 51.1 °F - 48.0 °F 89% 29.36 in 10.0 mi SSE 16.1 mph 31.1 mph 0.03 in   Overcast
2:53 PM 52.0 °F - 48.0 °F 86% 29.32 in 10.0 mi South 13.8 mph 25.3 mph 0.00 in   Overcast
3:53 PM 53.1 °F - 46.9 °F 80% 29.28 in 10.0 mi South 15.0 mph 26.5 mph N/A   Overcast
4:05 PM 53.6 °F - 44.6 °F 72% 29.27 in 10.0 mi SSW 15.0 mph 29.9 mph N/A   Overcast
4:53 PM 50.0 °F - 39.0 °F 66% 29.32 in 10.0 mi WSW 21.9 mph 44.9 mph 0.01 in   Mostly Cloudy
5:53 PM 45.0 °F 37.4 °F 34.0 °F 65% 29.37 in 10.0 mi WSW 18.4 mph 28.8 mph N/A   Overcast
6:34 PM 39.2 °F 29.3 °F 33.8 °F 81% 29.42 in 10.0 mi WSW 20.7 mph 33.4 mph 0.00 in Rain Light Rain
6:50 PM 39.2 °F 29.0 °F 32.0 °F 75% 29.43 in 10.0 mi SW 21.9 mph 31.1 mph 0.01 in   Overcast
6:53 PM 39.9 °F 30.8 °F 32.0 °F 73% 29.43 in 10.0 mi SW 18.4 mph 31.1 mph 0.01 in   Overcast
7:53 PM 39.0 °F 31.4 °F 27.0 °F 62% 29.46 in 10.0 mi SW 12.7 mph 34.5 mph 0.00 in   Overcast
8:53 PM 37.0 °F 27.7 °F 25.0 °F 62% 29.48 in 10.0 mi SW 16.1 mph 36.8 mph 0.00 in   Overcast
9:53 PM 35.1 °F 23.8 °F 26.1 °F 70% 29.49 in 5.0 mi WSW 20.7 mph 36.8 mph 0.00 in Snow Light Snow
10:14 PM 35.6 °F 24.8 °F 26.6 °F 70% 29.49 in 7.0 mi SW 19.6 mph 35.7 mph 0.00 in Snow Light Snow
10:53 PM 34.0 °F 22.4 °F 26.1 °F 73% 29.51 in 4.0 mi WSW 20.7 mph 35.7 mph 0.00 in Snow Light Snow
11:53 PM 33.1 °F 20.6 °F 25.0 °F 72% 29.52 in 7.0 mi WSW 23.0 mph 34.5 mph 0.00 in Snow Light Snow